Location: Bamobli
(6.6379°N, 10.9396°W)
Time: 15:11:35
(UTC+00:00)

Meteor 2-6 Rocket - Pass Details

Date: 07 June 2020
Orbit: 806 x 914 km, 81.3° (Epoch: 05 July)

Event Time Altitude Azimuth Distance (km) Brightness Sun altitude
Rises 05:46:17 0° 349° (N) 3,440 7.6 -10.3°
Reaches altitude 10° 05:48:46 10° 347° (NNW) 2,488 6.8 -9.7°
Maximum altitude 05:54:20 65° 266° (W) 918 4.2 -8.5°
Drops below altitude 10° 05:59:46 10° 184° (S) 2,423 6.3 -7.2°
Sets 06:02:09 0° 181° (S) 3,344 7.1 -6.7°
